www.pogodaiklimat.ru

Погода и климат >> Архив погоды >> Россия >> Хабаровский край >> Советская Гавань


АРХИВ ПОГОДЫ в Советской Гавани

Время (UTC), дата Ветер
(напр.,м/с)
 
Видим.   Явления Облачность Т
(С)
Тd
(С)
f
(%)
Тe
(С)
Тes
(С)
Комфортность P
(гПа)
Po
(гПа)
Тmin
(С)
Tmax
(С)
R
(мм)
R24
(мм)
S
(см)
12 14.03 СЗ 4 35 км 10/0
[Ac trans Ci fib]
-6.1 -7.6 89 -13 -13 1015.6 1012.9
15 14.03 ЮЗ 2 30 км 6/0
[Ac trans Ci fib]
-6.9 -8.2 90 -11 -11 1015.7 1013.0
18 14.03 СЗ 2 45 км 3/0
[Ci fib]
-10.7 -11.7 92 -15 -15 1015.6 1012.8
21 14.03 ЮЗ 2 50 км 3/0
[Ac trans Ci fib]
-10.4 -11.3 93 -15 -15 1015.8 1013.0 -11.3 7
00 15.03 ЮЗ 2 50 км 6/0
[Ci fib]
-4.5 -8.4 74 -9 -4 1015.7 1013.0
03 15.03 Ю 4 50 км 10/5 600 м
[Cu hum Ac lent Ci fib]
+1.9 -8.8 45 -2 -1 1013.7 1011.0
06 15.03 Ю 4 50 км 10/3 600 м
[Cb cap Ac lent Ci fib]
+1.6 -8.1 48 -3 -2 1012.1 1009.5
09 15.03 Ю 2 50 км 10/3 600 м
[Cb cap Ac trans Ci fib]
+2.2 -6.1 54 -0 -0 1012.3 1009.6
12 15.03 штиль 0 40 км 10/0
[Ac trans Cs]
-3.6 -5.6 86 -5 -5 1012.7 1010.0
15 15.03 штиль 0 40 км 10/0
[Ac trans Ci fib]
-3.7 -7.5 75 -5 -5 1012.1 1009.4
18 15.03 н/о
21 15.03 штиль 0 20 км 10/10
[Sc]
-7.8 -9.0 91 -9 -9 1013.3 1010.6 -9.1 5
00 16.03 ЮЗ 2 50 км 10/3 600 м
[Sc Ac trans Ci fib]
-2.1 -8.1 63 -6 -4 1013.6 1010.9
03 16.03 В 2 50 км 10/6 600 м
[Cu med, cong Ac trans Ci fib]
+2.4 -12.0 34 0 +2 1012.2 1009.6
06 16.03 В 4 50 км 10/8 600 м
[Cu hum Ci fib]
+0.9 -7.9 52 -4 -3 1011.4 1008.8
09 16.03 Ю 2 50 км 8/3 600 м
[Sc Ac lent Ci fib]
-0.4 -9.4 51 -3 -3 1011.9 1009.3 +3.3
12 16.03 ЮЗ 2 28 км 8/0
[Ci fib]
-3.6 -8.5 69 -7 -7 1012.8 1010.1
15 16.03 ЮЗ 2 25 км 6/0
[Ci fib]
-4.7 -10.4 64 -9 -9 1012.5 1009.8
18 16.03 Ю 2 29 км 6/0
[Ac lent Ci fib]
-6.3 -11.3 68 -10 -10 1011.8 1009.1
21 16.03 ЮЗ 4 20 км 10/0
[Ac lent Ci fib]
-7.9 -11.8 74 -15 -15 1011.4 1008.7 -7.9 3
00 17.03 ЮЗ 4 50 км 10/0
[Ac trans Cc]
-1.6 -10.3 51 -7 -4 1010.8 1008.1 -8.0
03 17.03 ЮЗ 4 50 км 10/4 600 м
[Cu hum Ac trans Cc]
+4.7 -11.8 29 +2 +3 1008.0 1005.4
06 17.03 Ю 2 50 км 10/8 600 м
[Cb cap Ac trans Ci fib]
+4.0 -10.6 34 +2 +3 1006.6 1004.0
09 17.03 З 2 50 км 10/4 600 м
[Sc Ac trans Ci fib]
+2.2 -9.0 43 -0 -0 1007.2 1004.6 +5.1
12 17.03 ЮЗ 2 45 км 6/3 600 м
[Sc Ci fib]
-0.1 -9.9 48 -3 -3 1008.1 1005.5
15 17.03 ЮЗ 2 45 км 3/3 600 м
[Sc]
-2.8 -9.3 61 -6 -6 1007.6 1004.9
18 17.03 ЮЗ 2 45 км 10/3 600 м
[Sc Ci fib]
-3.9 -9.3 66 -8 -8 1006.6 1003.9
21 17.03 ЮЗ 2 20 км 10/3 600 м
[Sc Ac As]
-5.7 -9.8 73 -10 -10 1005.7 1003.0 -5.7
00 18.03 ЮЗ 2 20 км 10/3 600 м
[Sc Ac trans Cc]
+0.9 -7.3 54 -2 0 1004.8 1002.2 -7.9
03 18.03 З 4 20 км 10/3 600 м
[Cu Sc Ac trans Cc]
+7.2 -5.3 41 +4 +7 1002.7 1000.1
06 18.03 Ю 4 20 км 10/3 600 м
[Sc Ac As]
+7.7 -7.7 33 +5 +6 1001.1 998.5
09 18.03 Ю 4 50 км 10/3 600 м
[Sc Ac und Ci fib]
+5.3 -7.4 39 +2 +2 999.1 996.6 +9.1
12 18.03 Ю 2 35 км 10/0
[Ac trans Ci fib]
+0.2 -5.1 68 -3 -3 997.7 995.0
15 18.03 ЮЗ 2 45 км 10/0
[Ac trans Ci fib]
-1.8 -4.9 79 -6 -6 996.5 993.9
18 18.03 ЮЗ 2 26 км 10/0
[Ac As]
-3.5 -6.0 83 -8 -8 995.7 993.1
21 18.03 СВ 4
{16}
20 км 4/1 600 м
[Sc Ci fib]
-2.7 -5.1 84 -9 -9 1002.4 999.7 -4.0 0
00 19.03 С 8-12
{14}
50 км 4/3 600 м
[Cu hum Ac lent]
-2.3 -10.9 52 -10 -9 1008.1 1005.4
03 19.03 СЗ 6-12
{18}
50 км 6/3 600 м
[Cu hum Ci fib]
-0.5 -12.8 39 -6 -4 1011.5 1008.8
06 19.03 СВ 6-10
{12}
50 км 4/0
[Ac lent Ci fib]
-3.5 -10.4 59 -10 -9 1014.6 1011.9
09 19.03 В 4-10
{10}
20 км 3/1 600 м
[Sc Ci fib]
-6.6 -11.5 68 -13 -13 1017.0 1014.2 +0.2
12 19.03 В 4
{10}
30 км 6/4 600 м
[Sc Ci fib]
-7.8 -12.3 70 -14 -14 1018.6 1015.8
15 19.03 В 4 30 км 10/3 600 м
[Sc As trans]
-8.2 -14.3 61 -15 -15 1018.7 1016.0
18 19.03 В 2 6000 м слаб. ливневой снег 10/10 600 м
[Cb cap]
-9.5 -10.8 90 -14 -14 1018.1 1015.3
21 19.03 СВ 2 1000 м сильн. ливневой дождь 10/10 600 м
[Cb cap]
-9.6 -10.7 92 -14 -14 1014.6 1011.8 -9.6 4 9
00 20.03 СВ 4 500 м ливневой снег 10/10 600 м
[Cb cap]
-9.2 -10.2 92 -16 -16 1012.7 1010.0 -9.7
03 20.03 СВ 6-10
{10}
1000 м ливневой снег {метель} 10/8 600 м
[Cb cap Ac As]
-8.4 -9.4 92 -17 -17 1012.6 1009.8
06 20.03 СВ 6-14
{14}
4000 м позёмок {ливн. осадки} 10/4 600 м
[Cb cap Ac trans Ci fib]
-8.2 -10.3 85 -17 -16 1014.4 1011.7
09 20.03 СВ 6-10
{14}
20 км позёмок 6/3 600 м
[Sc Ac lent Ci fib]
-9.6 -13.1 76 -18 -18 1017.8 1015.1 -7.6 11
12 20.03 З 2 15 км {метель} 6/0
[Ci fib]
-12.1 -15.7 75 -17 -17 1020.6 1017.8
15 20.03 З 2 23 км 10/0
[Ci fib]
-15.0 -18.3 76 -20 -20 1021.2 1018.4
18 20.03 штиль 0 17 км 10/0
[Ci fib]
-17.8 -19.8 84 -18 -18 1020.6 1017.8
21 20.03 штиль 0 50 км 8/0
[Ci fib]
-19.4 -21.4 84 -19 -19 1019.9 1017.1 -19.4 15
00 21.03 З 2 50 км 10/0
[Ac As Ci fib]
-10.9 -16.8 62 -15 -12 1018.7 1015.9 -19.6
03 21.03 СВ 4 50 км 10/1 600 м
[Sc Ac As]
-7.7 -13.7 62 -14 -12 1016.9 1014.1
06 21.03 СВ 4 10 км слаб. снег 10/1 600 м
[Sc As trans]
-7.9 -13.3 65 -14 -13 1014.4 1011.7
09 21.03 СВ 4 2000 м ливневой снег 10/10 600 м
[Cb cap]
-9.2 -12.1 79 -16 -16 1013.2 1010.4 -7.3 0.3

 

Местоположение метеостанции Советская Гавань (Хабаровский край, Россия): широта 49.00 долгота 140.30 высота над уровнем моря 24 м.

В архиве по умолчанию представлена погода в Советской Гавани за последнюю неделю. Архивные данные за месяц целиком и за предыдущие месяцы, начиная с января 2011 года, Вы можете получить, выбрав интересующий диапазон дат из раскрывающегося списка и нажав кнопку "Ввод!".


*Определитесь, кто Вы:
робот инопланетянин человек

Внимание! Время в таблицах - всемирное. Для получения местного времени необходимо прибавить поправку, которая равна 10 ч.

Смотрите также архив погоды в соседних городах и на ближайших метеорологических станциях:

Погода в Тумнине (Хабаровский край, Россия) (75 км)
Погода в Мопау (Хабаровский край, Россия) (103 км)
Погода в Углегорске (Сахалинская область, Россия) (124 км)
Погода в Солекуль (Хабаровский край, Россия) (169 км)
Погода в Пильво (Сахалинская область, Россия) (175 км)
Погода в Ильинском (Сахалинская область, Россия) (180 км)
Погода в Макарове (Сахалинская область, Россия) (181 км)
Погода в Сегжеме (Хабаровский край, Россия) (203 км)
Погода в Поронайске (Сахалинская область, Россия) (205 км)
Погода в Оноре (Сахалинская область, Россия) (209 км)

Пояснения к столбцам:

Ветер - указаны скорость ветра в м/с - средняя за 10 мин, порывы в срок и между сроками (в фигурных скобках) и направление, откуда дует ветер: С - северный, СВ - северо-восточный, В - восточный, ЮВ - юго-восточный, Ю - южный, ЮЗ - юго-западный, З - западный, СЗ - северо-западный.
Видимость - горизонтальная дальность видимости в метрах или километрах. При видимости от 1 до 10 км при отсутствии осадков обычно наблюдается дымка, при ухудшении видимости до 1 км и менее - туман. В сухую погоду видимость может ухудшаться дымом, пылью или мглою.
Явления - указаны атмосферные явления, наблюдавшиеся в срок или в последний час перед сроком; фигурными скобками обозначены явления, наблюдавшиеся между сроками (за 1-3 часа до срока); квадратными скобками обозначены град или гололедные отложения с указанием их диаметра в мм.
Облачность - указаны через наклонную черту общая и нижняя облачность в баллах и высота нижней границы облаков в метрах; квадратными скобками обозначены формы облаков: Ci - перистые, Cs - перисто-слоистые, Cc - перисто-кучевые, Ac - высококучевые, As - высокослоистые, Sc - слоисто-кучевые, Ns - слоисто-дождевые, Cu - кучевые, Cb - кучево-дождевые. Подробнее классификацию облаков см. в Атласе облаков (PDF).
T - Температура воздуха - температура, измеренная на высоте 2 м над землей.
Td - Температура точки росы - температура, при понижении до которой содержащийся в воздухе водяной пар достигнет насыщения.
f - Относительная влажность воздуха - влажноcть воздуха, измеренная на высоте 2 м над землей.
Te - Эффективная температура - температура, которую ощущает одетый по сезону человек в тени. Характеристика душности погоды. При расчете учитывается влияние влажности воздуха и скорости ветра на теплоощущения человека.
Tes - Эффективная температура на солнце - температура, которую ощущает человек, с поправкой на солнечный нагрев. Характеристика знойности погоды. Зависит от высоты солнца над горизонтом, облачности и скорости ветра. Ночью, в пасмурную погоду, а также при ветре 12 м/с и более поправка равна нулю.
P - Атмосферное давление - приведенное к уровню моря атмосферное давление.
Po - Атмосферное давление - измеренное на уровне метеостанции атмосферное давление.
Tmin - Минимальная температура - минимум температуры воздуха на высоте 2 м над землей.
Tmax - Максимальная температура - максимум температуры воздуха на высоте 2 м над землей.
R - Количество осадков - Количество выпавших осадков за период времени, мм. При наведении курсора мыши на число - период времени, за который выпало указанное количество осадков.
R24 - Количество осадков - Количество выпавших осадков за 24 часа, мм.
S - Снежный покров - Высота снежного покрова, см. При наведении курсора мыши на число - состояние снежного покрова и степень покрытия местности в баллах.